Meeker, CO

9:03 PM MST on February 10, 2016 (GMT -0700)
Meeker

Weather History for KEEO - December, 2013

Change the Weather History Date:

Tuesday, December 24, 2013

  Actual Average Record
Temperature  
Mean Temperature 17 °F 20 °F  
Max Temperature 35 °F 33 °F - ()
Min Temperature -1 °F 7 °F - ()
Degree Days  
Heating Degree Days 48 45  
Month to date heating degree days 1209 1036  
Since 1 July heating degree days 3107 2972  
Cooling Degree Days 0 0  
Month to date cooling degree days 0 0  
Year to date cooling degree days 324 172  
Moisture  
Dew Point 18 °F    
Average Humidity 68    
Maximum Humidity 96    
Minimum Humidity 39    
Precipitation  
Precipitation 0.10 in 0.04 in - ()
Month to date precipitation 0.94 0.86  
Year to date precipitation 17.94 15.81  
Sea Level Pressure  
Sea Level Pressure 30.33 in    
Wind  
Wind Speed 9 mph (NW)    
Max Wind Speed 22 mph    
Max Gust Speed 28 mph    
Visibility 7 miles    
Events Fog , Snow    
T = Trace of Precipitation, MM = Missing Value Source: NWS Daily Summary

Daily Weather History Graph

Daily Weather History Graph

Search for Another Location

Airport or City:

Trip Planner

Search our weather history database for the weather conditions in past years. The results will help you decide how hot, cold, wet, or windy it might be!

Date:

Astronomy

Dec. 24, 2013 Rise Set
Actual Time 7:31 AM MST 4:51 PM MST
Civil Twilight 7:00 AM MST 5:21 PM MST
Nautical Twilight 6:26 AM MST 5:55 PM MST
Astronomical Twilight 5:53 AM MST 6:28 PM MST
Moon No Moon Rise 11:27 AM MST (12/24)
Length of Visible Light 10h 20m
Length of Day
9h 19m
Waning Gibbous, 58% of the Moon is Illuminated
Dec 24
Waning Gibbous
Dec 25
Last Quarter
Jan 1
New
Jan 7
First Quarter
Jan 15
Full

Hourly Weather History & Observations

Time (MST) Temp. Windchill Dew Point Humidity Pressure Visibility Wind Dir Wind Speed Gust Speed Precip Events Conditions
12:53 AM 33.1 °F 26.1 °F 21.9 °F 64% 30.31 in 10.0 mi SW 8.1 mph 19.6 mph N/A   Overcast
1:53 AM 33.1 °F 30.0 °F 21.9 °F 64% 30.33 in 10.0 mi Variable 3.5 mph - N/A   Overcast
2:53 AM 33.1 °F - 23.0 °F 66% 30.31 in 10.0 mi Calm Calm - N/A   Overcast
3:53 AM 33.1 °F 28.7 °F 23.0 °F 66% 30.29 in 10.0 mi Variable 4.6 mph - N/A   Overcast
4:53 AM 34.0 °F 27.2 °F 23.0 °F 64% 30.25 in 10.0 mi SW 8.1 mph - N/A   Overcast
5:53 AM 34.0 °F 23.0 °F 21.9 °F 61% 30.24 in 10.0 mi SSW 18.4 mph 26.5 mph N/A   Overcast
6:53 AM 34.0 °F 23.8 °F 23.0 °F 64% 30.22 in 10.0 mi WSW 16.1 mph 21.9 mph N/A   Overcast
7:53 AM 33.1 °F 23.0 °F 21.9 °F 64% 30.20 in 10.0 mi WSW 15.0 mph - N/A   Overcast
8:53 AM 35.1 °F 25.9 °F 21.9 °F 59% 30.21 in 10.0 mi WSW 13.8 mph 21.9 mph N/A   Overcast
9:53 AM 35.1 °F 27.9 °F 24.1 °F 64% 30.22 in 4.0 mi WSW 9.2 mph - 0.00 in Snow Light Snow
10:18 AM 33.1 °F 23.0 °F 26.1 °F 75% 30.22 in 1.8 mi NW 15.0 mph - 0.00 in Snow Light Snow
10:28 AM 32.0 °F 22.1 °F 27.0 °F 82% 30.23 in 0.8 mi NNW 13.8 mph - 0.00 in Snow Light Snow
10:46 AM 30.9 °F 22.2 °F 28.0 °F 89% 30.24 in 0.5 mi North 10.4 mph - 0.03 in Fog , Snow Snow
10:53 AM 30.9 °F 23.5 °F 28.0 °F 89% 30.28 in 1.0 mi NNW 8.1 mph - 0.04 in Snow Light Snow
11:01 AM 30.0 °F 25.2 °F 28.9 °F 96% 30.25 in 0.5 mi NW 4.6 mph - 0.00 in Fog , Snow Snow
11:11 AM 30.0 °F 26.5 °F 28.9 °F 96% 30.26 in 0.2 mi NW 3.5 mph - 0.02 in Fog , Snow Heavy Snow
11:53 AM 30.9 °F 20.2 °F 26.1 °F 82% 30.29 in 0.5 mi NW 15.0 mph - 0.06 in Snow Snow
11:58 AM 30.0 °F 19.1 °F 25.0 °F 82% 30.26 in 0.8 mi NW 15.0 mph 21.9 mph 0.00 in Snow Light Snow
12:03 PM 30.9 °F 19.4 °F 24.1 °F 76% 30.26 in 1.2 mi NW 17.3 mph 23.0 mph 0.00 in Snow Light Snow
12:06 PM 30.9 °F 22.2 °F 23.0 °F 72% 30.26 in 2.0 mi NNW 10.4 mph 23.0 mph 0.00 in Snow Light Snow
12:14 PM 30.9 °F 27.5 °F 23.0 °F 72% 30.26 in 7.0 mi West 3.5 mph - 0.00 in Snow Light Snow
12:25 PM 32.0 °F 25.6 °F 21.0 °F 64% 30.26 in 9.0 mi NNW 6.9 mph - 0.00 in Snow Light Snow
12:53 PM 30.9 °F 23.5 °F 17.1 °F 57% 30.30 in 10.0 mi NNW 8.1 mph 20.7 mph 0.00 in   Overcast
1:53 PM 28.0 °F 17.0 °F 21.9 °F 78% 30.32 in 10.0 mi SW 13.8 mph - N/A   Mostly Cloudy
2:53 PM 32.0 °F 20.1 °F 10.9 °F 42% 30.31 in 10.0 mi NNW 19.6 mph 27.6 mph N/A   Clear
3:07 PM 30.9 °F 19.8 °F 10.9 °F 43% 30.29 in 10.0 mi North 16.1 mph 25.3 mph N/A   Partly Cloudy
3:53 PM 30.0 °F 17.9 °F 14.0 °F 51% 30.35 in 10.0 mi North 18.4 mph 21.9 mph N/A   Clear
4:53 PM 26.1 °F 16.8 °F 10.9 °F 53% 30.40 in 10.0 mi North 9.2 mph - N/A   Clear
5:53 PM 19.9 °F - 9.0 °F 62% 30.45 in 10.0 mi Calm Calm - N/A   Clear
6:53 PM 6.1 °F - 1.9 °F 83% 30.53 in 10.0 mi Calm Calm - N/A   Clear
7:53 PM 8.1 °F - 3.0 °F 80% 30.54 in 10.0 mi Calm Calm - N/A   Clear
8:53 PM 5.0 °F -6.9 °F 3.0 °F 92% 30.57 in 10.0 mi NNE 6.9 mph - N/A   Clear
9:53 PM 7.0 °F 0.1 °F 3.9 °F 87% 30.56 in 10.0 mi Variable 3.5 mph - N/A   Clear
10:53 PM 1.9 °F -9.2 °F -0.0 °F 91% 30.61 in 10.0 mi NE 5.8 mph - N/A   Clear
11:53 PM 3.9 °F -9.4 °F -0.0 °F 84% 30.61 in 10.0 mi NE 8.1 mph - N/A   Clear